Regional Weather Roundup
Issued by NWS

Home | Current Version | Previous Version | Graphics & Text | Print | Product List | Glossary On
Versions: 1 2 3 4 5 6 7 8 9 10 11 12 13 14 15 16 17 18 19 20 21 22 23 24 25 26 27 28 29 30 31 32 33 34 35 36 37 38 39 40 41 42 43 44 45 46 47 48 49 50
000
ASUS43 KIND 162209
RWRIN

WEATHER ROUNDUP FOR INDIANA
NATIONAL WEATHER SERVICE INDIANAPOLIS IN
500 PM EST FRI FEB 16 2018

NOTE: "FAIR" INDICATES FEW OR NO CLOUDS BELOW 12,000 FEET WITH NO
SIGNIFICANT WEATHER AND/OR OBSTRUCTIONS TO VISIBILITY.

* - STATION DOES NOT REPORT WEATHER SUCH AS PRECIPITATION OR FOG.

+ - STATION NOT QUALITY CONTROLLED BY THE NATIONAL WEATHER SERVICE.
    USE DATA WITH CAUTION...ESPECIALLY DEWPOINT AND RELATIVE
    HUMIDITY OBSERVATIONS.

INZ001>003-010>013-019-020-162300-
NORTHWEST INDIANA

CITY           SKY/WX    TMP DP  RH WIND       PRES   REMARKS
GARY /AIRPORT/ MOSUNNY   34  23  64 N3        30.27R
KNOX *+        PTSUNNY   34  23  64 NW5       30.26R WCI  30
LA PORTE +     FAIR      32  22  66 NW7       30.26R WCI  26
MICHIGAN CITY+ FAIR      32  23  69 NW7       30.27S WCI  26
MONTICELLO +   PTSUNNY   34  22  62 NW9       30.27R WCI  26
RENSSELAER +   FAIR      34  19  55 W10       30.28R WCI  26
VALPARAISO     FAIR      37  21  52 N6        30.25S WCI  32

$$

LMZ046-743>745-162300-
SOUTHERN LAKE MICHIGAN

STATION/POSITION TIME  TEMP    WIND        PRES    WAVE
                       AIR SEA DIR/SP/G            HT
                 (UTC) (F)     (DEG/KT/KT) (MB)    (FT)
BURNS HARBOR     2140   31      20/  7/  7 1025.4S
MICHIGAN CITY    2140   34     340/  8/  9   N/A

$$

INZ004-005-014>016-021>024-162300-
NORTH CENTRAL INDIANA

CITY           SKY/WX    TMP DP  RH WIND       PRES   REMARKS
ELKHART        PTSUNNY   32  19  59 NW9       30.25R WCI  24
GOSHEN         PTSUNNY   32  19  58 NW10      30.24R WCI  24
LOGANSPORT +   CLOUDY    32  23  69 NW5       30.28R WCI  27
PERU/GRISSOM   CLOUDY    33  24  69 NW12      30.26R WCI  24
ROCHESTER +    PTSUNNY   36  23  60 NW8       30.27R WCI  29
SOUTH BEND     FAIR      32  19  58 NW10      30.25R WCI  24
WARSAW +       CLOUDY    34  21  60 NW8       30.25R WCI  27

$$

INZ006>009-017-018-025>027-162300-
NORTHEAST INDIANA

CITY           SKY/WX    TMP DP  RH WIND       PRES   REMARKS
AUBURN +       CLOUDY    32  21  64 NW8       30.25R WCI  25
FORT WAYNE     PTSUNNY   34  23  64 NW15      30.25R WCI  24
HUNTINGTON +   CLOUDY    32  22  65 NW7       30.26R WCI  26
KENDALLVILLE + CLOUDY    32  21  65 NW8       30.23S WCI  24

$$

INZ028-029-035-036-043>045-051>053-162300-
WEST CENTRAL INDIANA

CITY           SKY/WX    TMP DP  RH WIND       PRES   REMARKS
CRAWFORDSVL +  CLOUDY    33  27  77 NW8       30.28R WCI  26
GREENCASTLE +  CLOUDY    34  27  75 N7        30.28R WCI  28
LAFAYETTE      CLOUDY    35  23  61 N12       30.28R WCI  27
TERRE HAUTE    CLOUDY    37  29  72 NW9       30.29R WCI  30

$$

INZ030>032-037>040-046>048-054>057-064-065-162300-
CENTRAL INDIANA

CITY           SKY/WX    TMP DP  RH WIND       PRES   REMARKS
COLUMBUS       CLOUDY    37  27  65 N13       30.27R WCI  29
FISHERS *+     CLOUDY    34  28  80 NW9       30.27R WCI  26
FRANKFORT +    CLOUDY    37  27  69 N6        30.28S WCI  32
GREENWOOD *+   CLOUDY   N/A N/A N/A N12       30.27R
INDIANAPOLIS   CLOUDY    35  25  66 N12       30.27R WCI  27
-EAGLE CREEK   CLOUDY    36  24  62 N8        30.26R WCI  30
KOKOMO +       CLOUDY    33  23  66 NW13      30.28R WCI  24
MARION +       CLOUDY    33  24  70 NW3       30.27R HAZE
MT COMFORT *+  CLOUDY    34  30  86 NW16      30.27R WCI  23
SHELBYVILLE    CLOUDY    37  26  64 N12       30.26R WCI  29
ZIONSVILLE +   CLOUDY    33  25  72 NW9       30.27R WCI  25

$$

INZ033-034-041-042-049-050-058-059-162300-
EAST CENTRAL INDIANA

CITY           SKY/WX    TMP DP  RH WIND       PRES   REMARKS
MUNCIE         CLOUDY    36  26  67 N14       30.25R WCI  27
RICHMOND +     CLOUDY    34  28  80 N12G17    30.23R WCI  25

$$

INZ060-061-067>069-081>083-085>088-162300-
SOUTHWEST INDIANA

CITY           SKY/WX    TMP DP  RH WIND       PRES   REMARKS
EVANSVILLE     CLOUDY    40  33  76 N12       30.30R WCI  33
HUNTINGBURG +  CLOUDY    39  33  79 N8        30.29R WCI  33
WASHINGTON +   CLOUDY    38  29  69 N12       30.29R WCI  31

$$

INZ062-063-066-070>080-084-089>092-162300-
SOUTH CENTRAL AND SOUTHEAST INDIANA

CITY           SKY/WX    TMP DP  RH WIND       PRES   REMARKS
BATESVILLE +   CLOUDY    37  28  70 MISG      30.24R
BEDFORD +      CLOUDY    37  30  75 NW6       30.26R WCI  33
BLOOMINGTON    CLOUDY    37  28  70 N8        30.27R WCI  31
FRENCH LICK *+ CLOUDY    37  30  75 W5        30.27R WCI  34
MADISON *+     CLOUDY    37  30  75 NW7       30.27R WCI  32
NORTH VERNON + CLOUDY    36  28  75 NW8       30.26R WCI  29
SEYMOUR +      CLOUDY    39  28  65 N9        30.27R WCI  33

$$





USA.gov is the U.S. government's official web portal to all federal, state and local government web resources and services.